H1 CPF 2 NER 2021 12 12 9 346 01 glonass127 H2 1106403 9127 37869 2021 12 12 0 0 0 2021 12 15 23 45 0 900 1 1 0 0 0 1 H9 10 0 59560 0.00000 0 -15486498.521 -19872246.033 -3842649.100 10 0 59560 900.00000 0 -15119101.463 -19290178.369 -6965977.477 10 0 59560 1800.00000 0 -14430441.874 -18484031.623 -9953525.116 10 0 59560 2700.00000 0 -13405025.148 -17509122.283 -12746956.323 10 0 59560 3600.00000 0 -12040046.206 -16424586.590 -15291680.798 10 0 59560 4500.00000 0 -10345769.540 -15290788.167 -17537940.116 10 0 59560 5400.00000 0 -8345362.202 -14166688.691 -19441799.683 10 0 59560 6300.00000 0 -6074184.544 -13107294.512 -20966024.981 10 0 59560 7200.00000 0 -3578567.049 -12161289.000 -22080823.428 10 0 59560 8100.00000 0 -914123.801 -11368952.311 -22764436.247 10 0 59560 9000.00000 0 1856326.868 -10760457.747 -23003568.087 10 0 59560 9900.00000 0 4665146.984 -10354617.433 -22793645.716 10 0 59560 10800.00000 0 7442468.311 -10158130.375 -22138900.893 10 0 59560 11700.00000 0 10118877.366 -10165364.114 -21052276.372 10 0 59560 12600.00000 0 12628083.013 -10358678.026 -19555157.700 10 0 59560 13500.00000 0 14909454.697 -10709272.922 -17676937.255 10 0 59560 14400.00000 0 16910325.300 -11178529.014 -15454420.317 10 0 59560 15300.00000 0 18587962.881 -11719773.471 -12931086.310 10 0 59560 16200.00000 0 19911130.164 -12280400.648 -10156221.172 10 0 59560 17100.00000 0 20861168.462 -12804253.372 -7183939.258 10 0 59560 18000.00000 0 21432563.078 -13234162.981 -4072115.345 10 0 59560 18900.00000 0 21632969.447 -13514539.655 -881248.755 10 0 59560 19800.00000 0 21482702.009 -13593903.070 2326717.413 10 0 59560 20700.00000 0 21013710.268 -13427246.551 5489598.276 10 0 59560 21600.00000 0 20268087.803 -12978135.603 8546167.018 10 0 59560 22500.00000 0 19296178.948 -12220453.359 11437329.668 10 0 59560 23400.00000 0 18154364.122 -11139720.717 14107252.813 10 0 59560 24300.00000 0 16902617.325 -9733936.955 16504423.831 10 0 59560 25200.00000 0 15601937.991 -8013906.517 18582624.830 10 0 59560 26100.00000 0 14311763.825 -6003038.906 20301803.415 10 0 59560 27000.00000 0 13087471.271 -3736629.989 21628825.590 10 0 59560 27900.00000 0 11978066.159 -1260653.851 22538098.296 10 0 59560 28800.00000 0 11024158.894 1369885.908 23012051.278 10 0 59560 29700.00000 0 10256306.781 4092979.155 23041470.349 10 0 59560 30600.00000 0 9693791.062 6841925.215 22625676.368 10 0 59560 31500.00000 0 9343878.774 9547848.711 21772546.563 10 0 59560 32400.00000 0 9201599.932 12142314.040 20498377.206 10 0 59560 33300.00000 0 9250049.781 14559932.868 18827589.022 10 0 59560 34200.00000 0 9461204.612 16740858.727 16792279.248 10 0 59560 35100.00000 0 9797218.553 18633066.776 14431626.801 10 0 59560 36000.00000 0 10212148.779 20194324.772 11791159.661 10 0 59560 36900.00000 0 10654038.551 21393773.105 8921896.335 10 0 59560 37800.00000 0 11067271.937 22213047.234 5879375.906 10 0 59560 38700.00000 0 11395101.999 22646894.243 2722593.758 10 0 59560 39600.00000 0 11582246.000 22703255.906 -487137.387 10 0 59560 40500.00000 0 11577437.391 22402812.945 -3687379.466 10 0 59560 41400.00000 0 11335825.242 21778007.911 -6815790.751 10 0 59560 42300.00000 0 10821117.378 20871586.473 -9811352.434 10 0 59560 43200.00000 0 10007373.812 19734717.830 -12615574.936 10 0 59560 44100.00000 0 8880371.438 18424773.356 -15173658.665 10 0 59560 45000.00000 0 7438479.136 17002857.759 -17435584.558 10 0 59560 45900.00000 0 5693003.333 15531198.007 -19357111.221 10 0 59560 46800.00000 0 3667986.806 14070501.724 -20900657.349 10 0 59560 47700.00000 0 1399467.285 12677398.191 -22036050.626 10 0 59560 48600.00000 0 -1065774.315 11402071.551 -22741127.326 10 0 59560 49500.00000 0 -3671924.060 10286187.326 -23002170.181 10 0 59560 50400.00000 0 -6356231.793 9361200.595 -22814175.620 10 0 59560 51300.00000 0 -9051406.200 8647117.365 -22180945.343 10 0 59560 52200.00000 0 -11688207.146 8151760.899 -21115000.946 10 0 59560 53100.00000 0 -14198125.867 7870572.811 -19637324.142 10 0 59560 54000.00000 0 -16516040.270 7786955.572 -17776928.773 10 0 59560 54900.00000 0 -18582733.895 7873139.717 -15570274.326 10 0 59560 55800.00000 0 -20347173.259 8091536.660 -13060533.871 10 0 59560 56700.00000 0 -21768449.036 8396517.331 -10296732.286 10 0 59560 57600.00000 0 -22817301.195 8736539.027 -7332773.038 10 0 59560 58500.00000 0 -23477166.119 9056528.383 -4226374.019 10 0 59560 59400.00000 0 -23744704.325 9300418.074 -1037934.374 10 0 59560 60300.00000 0 -23629789.443 9413728.913 2170644.679 10 0 59560 61200.00000 0 -23154961.747 9346087.818 5337161.451 10 0 59560 62100.00000 0 -22354371.967 9053575.488 8400314.309 10 0 59560 63000.00000 0 -21272261.950 8500805.453 11300878.232 10 0 59560 63900.00000 0 -19961047.663 7662647.962 13982835.329 10 0 59560 64800.00000 0 -18479085.837 6525527.387 16394438.786 10 0 59560 65700.00000 0 -16888217.874 5088239.759 18489191.399 10 0 59560 66600.00000 0 -15251193.148 3362256.986 20226721.681 10 0 59560 67500.00000 0 -13629077.954 1371505.266 21573542.782 10 0 59560 68400.00000 0 -12078756.357 -848373.491 22503681.583 10 0 59560 69300.00000 0 -10650624.995 -3251247.555 22999167.606 10 0 59560 70200.00000 0 -9386575.689 -5782159.466 23050373.636 10 0 59560 71100.00000 0 -8318347.867 -8379361.687 22656202.323 10 0 59560 72000.00000 0 -7466317.977 -10976642.103 21824115.221 10 0 59560 72900.00000 0 -6838775.384 -13505845.951 20570003.198 10 0 59560 73800.00000 0 -6431714.730 -15899492.509 18917899.440 10 0 59560 74700.00000 0 -6229153.955 -18093380.357 16899538.882 10 0 59560 75600.00000 0 -6203965.693 -20029074.993 14553770.362 10 0 59560 76500.00000 0 -6319188.695 -21656176.451 11925830.492 10 0 59560 77400.00000 0 -6529765.906 -22934272.724 9066490.979 10 0 59560 78300.00000 0 -6784637.588 -23834496.942 6031093.763 10 0 59560 79200.00000 0 -7029102.502 -24340621.956 2878490.944 10 0 59560 80100.00000 0 -7207348.082 -24449644.650 -330090.986 10 0 59560 81000.00000 0 -7265042.497 -24171833.407 -3532241.068 10 0 59560 81900.00000 0 -7151877.959 -23530234.666 -6665584.639 10 0 59560 82800.00000 0 -6823955.859 -22559657.489 -9669010.246 10 0 59560 83700.00000 0 -6245910.280 -21305177.571 -12483877.517 10 0 59560 84600.00000 0 -5392677.084 -19820222.997 -15055180.712 10 0 59560 85500.00000 0 -4250830.601 -18164322.403 -17332643.232 10 0 59561 0.00000 0 -2819428.446 -16400611.229 -19271719.666 10 0 59561 900.00000 0 -1110325.146 -14593201.274 -20834484.951 10 0 59561 1800.00000 0 852058.949 -12804528.274 -21990389.164 10 0 59561 2700.00000 0 3031508.014 -11092787.513 -22716865.507 10 0 59561 3600.00000 0 5381287.115 -9509569.178 -22999776.169 10 0 59561 4500.00000 0 7845871.989 -8097793.048 -22833688.125 10 0 59561 5400.00000 0 10363059.348 -6890029.976 -22221973.410 10 0 59561 6300.00000 0 12866368.598 -5907280.547 -21176732.412 10 0 59561 7200.00000 0 15287633.412 -5158261.338 -19718542.510 10 0 59561 8100.00000 0 17559673.776 -4639227.175 -17876038.104 10 0 59561 9000.00000 0 19618935.940 -4334334.550 -15685331.544 10 0 59561 9900.00000 0 21407989.335 -4216528.280 -13189287.778 10 0 59561 10800.00000 0 22877776.140 -4248911.019 -10436668.406 10 0 59561 11700.00000 0 23989520.026 -4386534.946 -7481163.380 10 0 59561 12600.00000 0 24716215.470 -4578537.279 -4380330.711 10 0 59561 13500.00000 0 25043637.175 -4770527.132 -1194466.090 10 0 59561 14400.00000 0 24970829.649 -4907121.161 2014574.613 10 0 59561 15300.00000 0 24510058.981 -4934519.893 5184576.390 10 0 59561 16200.00000 0 23686231.481 -4803015.588 8254166.211 10 0 59561 17100.00000 0 22535805.875 -4469326.115 11163991.240 10 0 59561 18000.00000 0 21105246.552 -3898657.269 13857852.065 10 0 59561 18900.00000 0 19449083.824 -3066407.827 16283770.318 10 0 59561 19800.00000 0 17627662.775 -1959446.817 18394971.767 10 0 59561 20700.00000 0 15704674.411 -576910.451 20150767.759 10 0 59561 21600.00000 0 13744570.980 1069514.077 21517320.143 10 0 59561 22500.00000 0 11809971.439 2955829.842 22468276.947 10 0 59561 23400.00000 0 9959162.938 5046487.061 22985268.293 10 0 59561 24300.00000 0 8243799.908 7295625.580 23058254.400 10 0 59561 25200.00000 0 6706894.131 9648753.398 22685719.767 10 0 59561 26100.00000 0 5381177.454 12044794.087 21874709.936 10 0 59561 27000.00000 0 4287903.790 14418421.020 20640709.634 10 0 59561 27900.00000 0 3436139.468 16702584.455 19007363.400 10 0 59561 28800.00000 0 2822571.457 18831129.136 17006042.394 10 0 59561 29700.00000 0 2431841.978 20741395.807 14675263.586 10 0 59561 30600.00000 0 2237396.559 22376699.860 12059970.145 10 0 59561 31500.00000 0 2202811.389 23688584.336 9210684.648 10 0 59561 32400.00000 0 2283545.627 24638753.013 6182549.350 10 0 59561 33300.00000 0 2429046.155 25200601.658 3034270.343 10 0 59561 34200.00000 0 2585116.830 25360281.484 -173014.965 10 0 59561 35100.00000 0 2696452.328 25117248.060 -3376925.638 10 0 59561 36000.00000 0 2709228.849 24484270.229 -6515056.980 10 0 59561 36900.00000 0 2573640.671 23486896.422 -9526207.706 10 0 59561 37800.00000 0 2246273.086 22162398.955 -12351589.304 10 0 59561 38700.00000 0 1692208.598 20558239.407 -14935992.317 10 0 59561 39600.00000 0 886774.261 18730119.103 -17228884.802 10 0 59561 40500.00000 0 -183146.790 16739696.798 -19185419.582 10 0 59561 41400.00000 0 -1518298.026 14652070.272 -20767328.816 10 0 59561 42300.00000 0 -3106763.353 12533128.966 -21943686.770 10 0 59561 43200.00000 0 -4924226.190 10446890.289 -22691524.703 10 0 59561 44100.00000 0 -6934764.179 8452932.918 -22996285.095 10 0 59561 45000.00000 0 -9092146.698 6604036.059 -22852105.932 10 0 59561 45900.00000 0 -11341580.675 4944124.444 -22261929.649 10 0 59561 46800.00000 0 -13621830.909 3506605.362 -21237435.034 10 0 59561 47700.00000 0 -15867625.033 2313166.903 -19798794.283 10 0 59561 48600.00000 0 -18012241.253 1373086.443 -17974261.058 10 0 59561 49500.00000 0 -19990169.459 683076.271 -15799598.883 10 0 59561 50400.00000 0 -21739733.340 227670.230 -13317362.567 10 0 59561 51300.00000 0 -23205563.332 -19868.001 -10576048.210 10 0 59561 52200.00000 0 -24340816.923 -96156.471 -7629129.859 10 0 59561 53100.00000 0 -25109053.964 -45887.968 -4534003.181 10 0 59561 54000.00000 0 -25485689.775 80316.444 -1350857.911 10 0 59561 54900.00000 0 -25458966.944 228300.494 1858497.950 10 0 59561 55800.00000 0 -25030407.259 342909.751 5031838.622 10 0 59561 56700.00000 0 -24214727.227 370564.658 8107722.224 10 0 59561 57600.00000 0 -23039222.949 261760.829 11026670.642 10 0 59561 58500.00000 0 -21542652.058 -26608.318 13732305.431 10 0 59561 59400.00000 0 -19773660.911 -529203.447 16172419.054 10 0 59561 60300.00000 0 -17788823.414 -1270550.712 18299962.470 10 0 59561 61200.00000 0 -15650373.287 -2263782.326 20073931.840 10 0 59561 62100.00000 0 -13423723.411 -3509858.219 21460139.399 10 0 59561 63000.00000 0 -11174873.907 -4997300.935 22431855.658 10 0 59561 63900.00000 0 -8967814.693 -6702454.992 22970312.314 10 0 59561 64800.00000 0 -6862027.975 -8590260.904 23065057.613 10 0 59561 65700.00000 0 -4910191.850 -10615513.285 22714158.141 10 0 59561 66600.00000 0 -3156178.183 -12724552.947 21924243.335 10 0 59561 67500.00000 0 -1633425.932 -14857325.357 20710391.362 10 0 59561 68400.00000 0 -363756.279 -16949722.764 19095857.400 10 0 59561 69300.00000 0 643321.727 -18936115.340 17111647.838 10 0 59561 70200.00000 0 1390786.035 -20751968.391 14795946.501 10 0 59561 71100.00000 0 1893749.009 -22336438.420 12193401.571 10 0 59561 72000.00000 0 2178591.044 -23634840.626 9354284.710 10 0 59561 72900.00000 0 2281615.426 -24600884.873 6333536.486 10 0 59561 73800.00000 0 2247279.726 -25198585.744 3189714.797 10 0 59561 74700.00000 0 2126077.232 -25403764.966 -16134.377 10 0 59561 75600.00000 0 1972157.347 -25205081.026 -3221662.579 10 0 59561 76500.00000 0 1840785.734 -24604540.109 -6364437.657 10 0 59561 77400.00000 0 1785752.560 -23617464.328 -9383171.164 10 0 59561 78300.00000 0 1856840.209 -22271916.181 -12218929.179 10 0 59561 79200.00000 0 2097460.000 -20607601.570 -14816301.296 10 0 59561 80100.00000 0 2542560.618 -18674296.278 -17124502.941 10 0 59561 81000.00000 0 3216899.720 -16529861.556 -19098387.605 10 0 59561 81900.00000 0 4133754.679 -14237932.349 -20699347.382 10 0 59561 82800.00000 0 5294129.507 -11865376.071 -21896082.587 10 0 59561 83700.00000 0 6686493.570 -9479629.735 -22665224.205 10 0 59561 84600.00000 0 8287064.663 -7146028.389 -22991796.237 10 0 59561 85500.00000 0 10060625.302 -4925238.198 -22869508.481 10 0 59562 0.00000 0 11961837.963 -2870902.738 -22300874.192 10 0 59562 900.00000 0 13937004.604 -1027600.417 -21297150.399 10 0 59562 1800.00000 0 15926193.095 570798.929 -19878103.690 10 0 59562 2700.00000 0 17865643.552 1902314.174 -18071606.138 10 0 59562 3600.00000 0 19690349.840 2957519.301 -15913071.212 10 0 59562 4500.00000 0 21336707.773 3739671.666 -13444741.957 10 0 59562 5400.00000 0 22745117.937 4264299.601 -10714846.938 10 0 59562 6300.00000 0 23862433.579 4558269.999 -7776641.903 10 0 59562 7200.00000 0 24644151.020 4658378.481 -4687357.429 10 0 59562 8100.00000 0 25056251.467 4609524.754 -1507074.293 10 0 59562 9000.00000 0 25076618.286 4462552.877 1702450.545 10 0 59562 9900.00000 0 24695972.030 4271849.653 4878983.749 10 0 59562 10800.00000 0 23918286.057 4092803.916 7961017.755 10 0 59562 11700.00000 0 22760667.364 3979234.518 10888952.191 10 0 59562 12600.00000 0 21252709.519 3980895.324 13606232.377 10 0 59562 13500.00000 0 19435346.230 4141161.594 16060424.156 10 0 59562 14400.00000 0 17359254.247 4494993.972 18204205.936 10 0 59562 15300.00000 0 15082872.394 5067264.280 19996260.663 10 0 59562 16200.00000 0 12670118.601 5871512.140 21402052.630 10 0 59562 17100.00000 0 10187898.450 6909183.643 22394476.198 10 0 59562 18000.00000 0 7703506.846 8169383.534 22954365.678 10 0 59562 18900.00000 0 5282028.177 9629151.649 23070858.033 10 0 59562 19800.00000 0 2983840.184 11254253.212 22741602.239 10 0 59562 20700.00000 0 862322.569 13000451.799 21972811.510 10 0 59562 21600.00000 0 -1038136.881 14815214.362 20779156.907 10 0 59562 22500.00000 0 -2683757.634 16639780.018 19183503.267 10 0 59562 23400.00000 0 -4052537.112 18411509.159 17216490.824 10 0 59562 24300.00000 0 -5134928.440 20066417.533 14915968.504 10 0 59562 25200.00000 0 -5933996.705 21541791.663 12326287.449 10 0 59562 26100.00000 0 -6465046.347 22778777.628 9497466.089 10 0 59562 27000.00000 0 -6754734.146 23724835.395 6484240.771 10 0 59562 27900.00000 0 -6839703.777 24335955.456 3345018.518 10 0 59562 28800.00000 0 -6764798.216 24578543.390 140751.067 10 0 59562 29700.00000 0 -6580924.610 24430891.160 -3066248.490 10 0 59562 30600.00000 0 -6342661.609 23884170.706 -6213523.453 10 0 59562 31500.00000 0 -6105710.733 22942905.188 -9239701.062 10 0 59562 32400.00000 0 -5924300.894 21624895.349 -12085704.728 10 0 59562 33300.00000 0 -5848657.755 19960601.587 -14695925.655 10 0 59562 34200.00000 0 -5922647.434 17992005.945 -17019328.976 10 0 59562 35100.00000 0 -6181696.948 15771000.614 -19010470.940 10 0 59562 36000.00000 0 -6651082.117 13357370.211 -20630405.395 10 0 59562 36900.00000 0 -7344657.852 10816452.774 -21847460.239 10 0 59562 37800.00000 0 -8264086.644 8216578.348 -22637867.414 10 0 59562 38700.00000 0 -9398599.458 5626393.546 -22986233.337 10 0 59562 39600.00000 0 -10725300.097 3112185.404 -22885840.123 10 0 59562 40500.00000 0 -12210000.517 735317.538 -22338771.794 10 0 59562 41400.00000 0 -13808551.661 -1450113.521 -21355863.443 10 0 59562 42300.00000 0 -15468612.928 -3399303.603 -19956475.127 10 0 59562 43200.00000 0 -17131784.702 -5078363.737 -18168096.001 10 0 59562 44100.00000 0 -18736012.874 -6465474.012 -16025787.719 10 0 59562 45000.00000 0 -20218162.901 -7551522.196 -13571479.458 10 0 59562 45900.00000 0 -21516654.033 -8340203.135 -10853129.870 10 0 59562 46800.00000 0 -22574042.205 -8847577.964 -7923773.843 10 0 59562 47700.00000 0 -23339442.702 -9101115.080 -4840474.197 10 0 59562 48600.00000 0 -23770691.077 -9138256.640 -1663200.017 10 0 59562 49500.00000 0 -23836152.327 -9004574.117 1546345.526 10 0 59562 50400.00000 0 -23516103.664 -8751593.191 4725924.301 10 0 59562 51300.00000 0 -22803634.509 -8434381.640 7813965.799 10 0 59562 52200.00000 0 -21705027.751 -8109003.025 10750750.078 10 0 59562 53100.00000 0 -20239608.089 -7829943.790 13479548.815 10 0 59562 54000.00000 0 -18439065.248 -7647621.721 15947703.660 10 0 59562 54900.00000 0 -16346281.259 -7606079.586 18107622.672 10 0 59562 55800.00000 0 -14013711.083 -7740959.521 19917677.483 10 0 59562 56700.00000 0 -11501383.539 -8077841.682 21342985.998 10 0 59562 57600.00000 0 -8874604.426 -8631015.529 22356067.578 10 0 59562 58500.00000 0 -6201455.438 -9402734.268 22937359.906 10 0 59562 59400.00000 0 -3550190.187 -10382983.332 23075589.011 10 0 59562 60300.00000 0 -986632.572 -11549773.072 22767986.242 10 0 59562 61200.00000 0 1428317.358 -12869944.600 22020348.235 10 0 59562 62100.00000 0 3640969.242 -14300457.054 20846938.299 10 0 59562 63000.00000 0 5606827.263 -15790104.979 19270230.003 10 0 59562 63900.00000 0 7292193.039 -17281596.734 17320496.241 10 0 59562 64800.00000 0 8675320.736 -18713909.772 15035249.604 10 0 59562 65700.00000 0 9747076.363 -20024826.613 12458542.480 10 0 59562 66600.00000 0 10511073.137 -21153547.061 9640138.111 10 0 59562 67500.00000 0 10983276.260 -22043268.126 6634566.427 10 0 59562 68400.00000 0 11191092.418 -22643623.393 3500081.149 10 0 59562 69300.00000 0 11171980.951 -22912878.399 297537.212 10 0 59562 70200.00000 0 10971644.177 -22819787.933 -2910790.337 10 0 59562 71100.00000 0 10641872.640 -22345034.604 -6062422.967 10 0 59562 72000.00000 0 10238136.310 -21482185.232 -9095906.331 10 0 59562 72900.00000 0 9817024.347 -20238121.768 -11952023.861 10 0 59562 73800.00000 0 9433643.144 -18632925.717 -14574970.974 10 0 59562 74700.00000 0 9139084.712 -16699218.543 -16913464.992 10 0 59562 75600.00000 0 8978074.911 -14480983.940 -18921767.201 10 0 59562 76500.00000 0 8986903.532 -12031920.354 -20560595.231 10 0 59562 77400.00000 0 9191726.197 -9413392.572 -21797906.253 10 0 59562 78300.00000 0 9607311.970 -6692068.544 -22609534.476 10 0 59562 79200.00000 0 10236291.280 -3937341.160 -22979669.610 10 0 59562 80100.00000 0 11068936.883 -1218643.979 -22901166.534 10 0 59562 81000.00000 0 12083487.559 1397225.767 -22375680.127 10 0 59562 81900.00000 0 13247000.623 3848664.202 -21413623.060 10 0 59562 82800.00000 0 14516696.475 6081590.475 -20033948.130 10 0 59562 83700.00000 0 15841737.316 8051451.953 -18263760.469 10 0 59562 84600.00000 0 17165363.553 9724822.010 -16137768.475 10 0 59562 85500.00000 0 18427296.322 11080525.140 -13697585.683 10 0 59563 0.00000 0 19566303.326 12110244.616 -10990899.007 10 0 59563 900.00000 0 20522819.390 12818590.641 -8070519.602 10 0 59563 1800.00000 0 21241509.070 13222628.099 -4993340.126 10 0 59563 2700.00000 0 21673665.295 13350889.092 -1819215.144 10 0 59563 3600.00000 0 21779341.882 13241913.642 1390208.905 10 0 59563 4500.00000 0 21529131.713 12942383.575 4572692.054 10 0 59563 5400.00000 0 20905517.049 12504930.399 7666603.732 10 0 59563 6300.00000 0 19903736.794 11985711.125 10612107.158 10 0 59563 7200.00000 0 18532135.953 11441854.863 13352302.903 10 0 59563 8100.00000 0 16811984.034 10928887.640 15834310.715 10 0 59563 9000.00000 0 14776770.989 10498242.940 18010270.361 10 0 59563 9900.00000 0 12471010.516 10194961.272 19838243.955 10 0 59563 10800.00000 0 9948600.323 10055673.705 21283004.552 10 0 59563 11700.00000 0 7270806.472 10106952.259 22316697.797 10 0 59563 12600.00000 0 4503953.902 10364094.822 22919365.719 10 0 59563 13500.00000 0 1716916.555 10830394.526 23079324.079 10 0 59563 14400.00000 0 -1021491.578 11496923.869 22793386.892 10 0 59563 15300.00000 0 -3645119.199 12342843.075 22066934.102 10 0 59563 16200.00000 0 -6092969.207 13336221.066 20913820.719 10 0 59563 17100.00000 0 -8311478.123 14435336.618 19356128.056 10 0 59563 18000.00000 0 -10256490.660 15590407.612 17423760.261 10 0 59563 18900.00000 0 -11894848.587 16745678.540 15153891.800 10 0 59563 19800.00000 0 -13205528.227 17841781.236 12590274.221 10 0 59563 20700.00000 0 -14180278.763 18818271.820 9782413.237 10 0 59563 21600.00000 0 -14823733.880 19616238.676 6784629.862 10 0 59563 22500.00000 0 -15152990.781 20180872.310 3655021.912 10 0 59563 23400.00000 0 -15196672.812 20463888.485 454344.835 10 0 59563 24300.00000 0 -14993513.874 20425701.185 -2755167.093 10 0 59563 25200.00000 0 -14590523.297 20037251.627 -5911016.240 10 0 59563 26100.00000 0 -14040808.226 19281413.449 -8951669.389 10 0 59563 27000.00000 0 -13401145.735 18153911.718 -11817772.624 10 0 59563 27900.00000 0 -12729408.256 16663713.887 -14453328.081 10 0 59563 28800.00000 0 -12081952.709 14832873.382 -16806807.591 10 0 59563 29700.00000 0 -11511085.774 12695830.038 -18832179.567 10 0 59563 30600.00000 0 -11062714.707 10298195.021 -20489827.234 10 0 59563 31500.00000 0 -10774285.326 7695070.354 -21747338.556 10 0 59563 32400.00000 0 -10673096.321 4948973.218 -22580151.189 10 0 59563 33300.00000 0 -10775062.767 2127452.295 -22972038.981 10 0 59563 34200.00000 0 -11083982.086 -699503.233 -22915430.027 10 0 59563 35100.00000 0 -11591333.904 -3462152.753 -22411550.098 10 0 59563 36000.00000 0 -12276621.957 -6093678.058 -21470389.039 10 0 59563 36900.00000 0 -13108242.812 -8532729.473 -20110491.529 10 0 59563 37800.00000 0 -14044843.365 -10725737.757 -18358577.377 10 0 59563 38700.00000 0 -15037108.201 -12628895.609 -16249000.024 10 0 59563 39600.00000 0 -16029899.550 -14209726.985 -13823055.329 10 0 59563 40500.00000 0 -16964657.758 -15448180.471 -11128155.659 10 0 59563 41400.00000 0 -17781959.473 -16337203.423 -8216886.935 10 0 59563 42300.00000 0 -18424124.401 -16882775.784 -5145968.598 10 0 59563 43200.00000 0 -18837760.050 -17103405.480 -1975138.045 10 0 59563 44100.00000 0 -18976137.075 -17029109.981 1234017.695 10 0 59563 45000.00000 0 -18801295.546 -16699929.943 4419259.501 10 0 59563 45900.00000 0 -18285794.443 -16164040.171 7518899.411 10 0 59563 46800.00000 0 -17414032.031 -15475539.372 10472986.443 10 0 59563 47700.00000 0 -16183083.117 -14692012.915 13224452.614 10 0 59563 48600.00000 0 -14603019.410 -13871971.434 15720198.199 10 0 59563 49500.00000 0 -12696700.610 -13072272.446 17912096.879 10 0 59563 50400.00000 0 -10499045.540 -12345632.138 19757903.212 10 0 59563 51300.00000 0 -8055813.624 -11738330.029 21222047.023 10 0 59563 52200.00000 0 -5421946.556 -11288200.854 22276301.494 10 0 59563 53100.00000 0 -2659537.614 -11022995.944 22900313.878 10 0 59563 54000.00000 0 164489.336 -10959181.139 23081990.142 10 0 59563 54900.00000 0 2980897.632 -11101220.555 22817727.082 10 0 59563 55800.00000 0 5720750.910 -11441375.875 22112487.727 10 0 59563 56700.00000 0 8318016.246 -11960030.075 20979718.244 10 0 59563 57600.00000 0 10712052.128 -12626523.260 19441106.863 10 0 59563 58500.00000 0 12849880.185 -13400467.469 17526187.867 10 0 59563 59400.00000 0 14688147.896 -14233487.573 15271796.200 10 0 59563 60300.00000 0 16194701.364 -15071317.545 12721380.858 10 0 59563 61200.00000 0 17349702.571 -15856166.213 9924188.008 10 0 59563 62100.00000 0 18146243.751 -16529254.616 6934327.407 10 0 59563 63000.00000 0 18590431.970 -17033419.084 3809738.342 10 0 59563 63900.00000 0 18700938.811 -17315670.330 611073.918 10 0 59563 64800.00000 0 18508032.596 -17329599.733 -2599475.355 10 0 59563 65700.00000 0 18052132.542 -17037529.442 -5759395.813 10 0 59563 66600.00000 0 17381944.946 -16412313.025 -8807078.377 10 0 59563 67500.00000 0 16552259.783 -15438707.629 -11683034.698 10 0 59563 68400.00000 0 15621501.179 -14114256.509 -14331076.361 10 0 59563 69300.00000 0 14649136.324 -12449641.560 -16699432.210 10 0 59563 70200.00000 0 13693053.872 -10468488.187 -18741780.016 10 0 59563 71100.00000 0 12807024.590 -8206628.450 -20418170.515 10 0 59563 72000.00000 0 12038353.560 -5710851.916 -21695824.020 10 0 59563 72900.00000 0 11425825.074 -3037195.811 -22549782.793 10 0 59563 73800.00000 0 10998028.567 -248845.963 -22963405.538 10 0 59563 74700.00000 0 10772137.362 2586263.090 -22928693.842 10 0 59563 75600.00000 0 10753192.212 5398047.674 -22446444.207 10 0 59563 76500.00000 0 10933919.609 8116964.676 -21526223.064 10 0 59563 77400.00000 0 11295091.692 10676678.043 -20186165.996 10 0 59563 78300.00000 0 11806411.059 13016590.195 -18452606.146 10 0 59563 79200.00000 0 12427881.315 15084132.565 -16359540.323 10 0 59563 80100.00000 0 13111603.366 16836720.036 -13947944.714 10 0 59563 81000.00000 0 13803919.464 18243288.882 -11264955.109 10 0 59563 81900.00000 0 14447812.495 19285355.802 -8362929.165 10 0 59563 82800.00000 0 14985457.504 19957556.216 -5298410.567 10 0 59563 83700.00000 0 15360816.587 20267642.274 -2131016.621 10 0 59563 84600.00000 0 15522166.963 20235943.896 1077728.051 10 0 59563 85500.00000 0 15424455.594 19894318.603 4265588.158 99